This demonstration page uses our WeatherBlox Daily Observations layout. Learn more.

Left ArrowRight Arrow

41.55636, -103.73856

Hourly Observations for December 14, 2021

Temp ( °F °C ) Dew Point ( °F °C ) Humidity (%) Winds ( mph kmh ) Pressure ( in mb ) Visibility ( mi km ) Precip ( " mm )
12:58 am 00:58 Partly Cloudy 40 4.2 12 -11.1 32 32 SSW 8 13 29.92 1013 10 16 0.00 0.00
1:58 am 01:58 Partly Cloudy 37 2.9 15 -9.6 40 40 WNW 8 13 29.94 1014 10 16 0.00 0.00
2:58 am 02:58 Clear 37 2.5 14 -10.1 39 39 Calm 29.93 1014 10 16 0.00 0.00
3:58 am 03:58 Clear 41 5.1 13 -10.6 31 31 W 5 7 29.91 1013 10 16 0.00 0.00
4:58 am 04:58 Clear 34 1.1 15 -9.7 45 45 Calm 29.95 1014 10 16 0.00 0.00
5:58 am 05:58 Clear 44 6.5 12 -11.1 27 27 N 5 7 29.91 1013 10 16 0.00 0.00
6:58 am 06:58 Clear 40 4.7 12 -11.1 31 31 NW 6 9 29.92 1013 10 16 0.00 0.00
7:58 am 07:58 Sunny 41 5.1 11 -11.8 29 29 SSW 7 11 29.91 1013 10 16 0.00 0.00
8:58 am 08:58 Sunny 46 8 11 -11.6 24 24 WSW 10 17 29.88 1012 10 16 0.00 0.00
10:58 am 10:58 Mostly Cloudy 53 11.4 12 -11 20 20 SW 5 7 29.83 1010 10 16 0.00 0.00
11:58 am 11:58 Sunny 54 12.2 17 -8.1 24 24 Calm 29.78 1009 10 16 0.00 0.00
1:58 pm 13:58 Sunny 55 12.6 11 -11.4 18 18 SSW 9 15 29.71 1006 10 16 0.00 0.00
2:58 pm 14:58 Sunny 50 9.8 20 -6.8 31 31 E 6 9 29.72 1007 10 16 0.00 0.00
3:58 pm 15:58 Mostly Sunny 48 8.8 18 -8 30 30 E 8 13 29.71 1006 10 16 0.00 0.00
4:58 pm 16:58 Mostly Cloudy 44 6.7 21 -6.3 39 39 SSE 5 7 29.76 1008 10 16 0.00 0.00
6:58 pm 18:58 Mostly Cloudy 34 1.3 20 -6.4 57 57 Calm 29.77 1008 10 16 0.00 0.00
7:58 pm 19:58 Clear 32 -0.2 18 -8 56 56 SSW 7 11 29.74 1007 10 16 0.00 0.00
8:58 pm 20:58 Clear 28 -2.1 16 -8.7 61 61 SW 6 9 29.71 1006 10 16 0.00 0.00
9:58 pm 21:58 Clear 38 3.4 16 -8.8 41 41 SE 17 28 29.63 1003 10 16 0.00 0.00
10:58 pm 22:58 Clear 35 1.5 16 -9 46 46 Calm 29.60 1002 10 16 0.00 0.00
11:58 pm 23:58 Clear 37 2.8 13 -10.7 37 37 SSW 5 7 29.57 1001 10 16 0.00 0.00

Powered by AerisWeather